Flag for South Africa Weather past 2 weeks in Durban, South Africa

Now
63 °F

Clear.


Feels Like: 63 °F
Forecast: 50 / 82 °F
Wind: 2 mph from North

Location: King Shaka International Airport

Current Time: Jul 24, 2014 at 8:54:36 PM

Latest Report: Jul 24, 2014 at 8:00 PM


Visibility: 4 mi

Pressure: 29.98 "Hg

Humidity: 88%

Dew point: 59 °F

Location of DurbanLocation

Historic Weather in Durban — Graph

°F

Durban temperature yesterday

Maximum temperature yesterday: 72 °F (at 10:00 AM)
Minimum temperature yesterday: 46 °F (at 3:00 AM)
Average temperature yesterday: 59 °F

Past Weeks' High & Low Weather Summary

 TemperatureHumidityPressure
High81 °F (Jul 17, 11:00 AM)94% (Jul 15, 8:00 PM)30.51 "Hg (Jul 15, 8:00 PM)
Low36 °F (Jul 12, 7:00 AM)21% (Jul 17, 10:00 PM)29.65 "Hg (Jul 17, 4:00 PM)
Average59 °F69%30.18 "Hg
* Reported Jul 9 7:00 PM — Jul 24 7:00 PM, Durban, Weather by CustomWeather, © 2014

Note: Actual official high and low records may vary slightly from our data, if they occured in-between our weather recording intervals... More about our weather records

Advertising

Durban weather history for previous 24 hours

 ConditionsComfort  
Time TempWeatherWind HumidityBarometerVisibility
7:00 PM
Jul 24
63 °FClear.7 mph88%29.98 "Hg6 mi
6:00 PM64 °FClear.9 mph83%29.98 "Hg6 mi
5:00 PM66 °FClear.8 mph78%29.98 "Hg10 mi
4:00 PM70 °FSunny.9 mph73%29.98 "Hg10 mi
3:00 PM72 °FSunny.10 mph65%29.98 "Hg10 mi
2:00 PM70 °FSunny.12 mph64%29.98 "Hg10 mi
1:00 PM72 °FPassing clouds.10 mph65%30.01 "HgN/A
12:00 PM72 °FPassing clouds.9 mph57%30.04 "HgN/A
11:00 AM68 °FSunny.14 mph60%30.09 "Hg10 mi
10:00 AM68 °FPassing clouds.8 mph64%30.12 "HgN/A
9:00 AM63 °FPassing clouds.5 mph68%30.12 "HgN/A
8:00 AM57 °FSunny.1 mph88%30.12 "Hg10 mi
7:00 AM46 °FSunny.2 mph93%30.12 "Hg10 mi
6:00 AM50 °FSunny.No wind88%30.12 "Hg10 mi
5:00 AM48 °FClear.1 mph87%30.09 "Hg10 mi
4:00 AM46 °FClear.1 mph93%30.12 "Hg10 mi
3:00 AM50 °FClear.1 mph94%30.12 "Hg10 mi
2:00 AM52 °FClear.2 mph94%30.15 "Hg10 mi
1:00 AM50 °FClear.1 mph88%30.15 "Hg10 mi
12:00 AM50 °FClear.No wind88%30.18 "Hg10 mi
11:00 PM
Jul 23
52 °FClear.No wind88%30.18 "Hg10 mi
10:00 PM54 °FPassing clouds.1 mph88%30.21 "HgN/A
9:00 PM54 °FPassing clouds.1 mph82%30.21 "HgN/A
8:00 PM55 °FPassing clouds.1 mph88%30.18 "HgN/A
Weather by CustomWeather, © 2014

See weather overviewHow to use our weather pages